Location: La Brionne
(46.1728°N, 1.7849°E)
Time: 13:29:57
(UTC+00:00)

Cosmos 2219 Rocket - Pass Details

Date: 28 October 2021
Orbit: 826 x 848 km, 71.0° (Epoch: 01 December)

Event Time Altitude Azimuth Distance (km) Brightness Sun altitude
Exits shadow 03:59:01 23° 341° (NNW) 1,706 3.7 -26.3°
Maximum altitude 04:02:34 71° 62° (ENE) 893 2.4 -25.7°
Drops below altitude 10° 04:08:14 10° 146° (SSE) 2,464 4.9 -24.7°
Sets 04:10:41 0° 149° (SSE) 3,396 5.7 -24.3°
